Location: Camp Crooked Creek
(37.9149°N, 85.6607°W)
Time: 04:34:03
(UTC-04:00)

Amateur Radio Satellites - All Passes

Search period start: 05 May 2016 04:04
Search period end: 06 May 2016 04:04
Location: Camp Crooked Creek, 37.9149°N, 85.6607°W

Satellite Date Start Highest point End Downlink Frequencies (MHz)
Time Altitude Azimuth
ITAMSAT 1 05 May 04:10:24 04:15:23 46° 99° (E) 04:20:21 435.822/435.867
DANDE 05 May 04:12:12 04:19:03 55° 266° (W) 04:27:02 436.750
STARS 05 May 04:14:24 04:18:00 25° 69° (ENE) 04:21:38 437.465
BEESAT 05 May 04:16:40 04:20:09 20° 266° (W) 04:23:37 436.000
MOZHAYETS 4 05 May 04:24:33 04:28:46 38° 72° (ENE) 04:33:00
Oscar 19 05 May 04:26:46 04:30:35 21° 295° (WNW) 04:34:21 437.125/150
Gurwin Techsat 1B 05 May 04:40:02 04:44:53 38° 290° (WNW) 04:49:45 435.225
CUSAT 1 05 May 04:52:45 04:56:53 16° 277° (W) 05:01:07 437.405
AO-7 05 May 05:01:57 05:09:56 47° 101° (E) 05:17:52 29.400- 29.500
JAS-2 05 May 05:08:44 05:11:46 13° 306° (NW) 05:14:49 435.910
BEESAT 3 05 May 05:21:13 05:22:34 11° 252° (WSW) 05:23:54 437.485
HORYU 2 05 May 05:24:55 05:27:31 15° 93° (E) 05:30:06 437.375
RS-15 05 May 05:31:00 05:41:28 31° 36° (NE) 05:51:58 29.354- 29.394
BEESAT 2 05 May 05:32:27 05:34:48 15° 250° (WSW) 05:37:07 435.950
KKS-1 05 May 05:41:28 05:44:35 18° 266° (W) 05:47:43 437.445
AIST 2 05 May 05:45:24 05:49:24 44° 55° (NE) 05:53:21 435.215
STARS 05 May 05:50:28 05:54:14 27° 263° (W) 05:58:03 437.465
ITAMSAT 1 05 May 05:50:45 05:54:30 21° 295° (WNW) 05:58:14 435.822/435.867
YUBILEINY 05 May 05:51:37 05:59:08 31° 71° (ENE) 06:06:37 435.215
MOZHAYETS 4 05 May 06:02:55 06:06:03 18° 267° (W) 06:09:11
CUBESAT XI-V 05 May 06:16:04 06:20:36 66° 76° (ENE) 06:25:13 437.345
NOAA 15 05 May 06:32:34 06:35:35 15° 92° (E) 06:38:35 137.62
NOAA 18 05 May 06:33:17 06:35:43 13° 91° (E) 06:38:10 137.9125
Cosmos 2491 05 May 06:34:19 06:41:43 31° 84° (E) 06:49:08 435.465 / 435.565
BRITE-PL 05 May 06:40:43 06:43:27 14° 88° (E) 06:46:10 437.365/2234.400
Cubesat XI-IV 05 May 06:44:26 06:46:35 12° 91° (E) 06:48:44 437.490
AO-7 05 May 06:55:01 07:02:27 38° 298° (WNW) 07:09:55 29.400- 29.500
STRAND 1 05 May 06:59:28 07:02:51 18° 64° (ENE) 07:06:14 437.568
HORYU 2 05 May 07:00:05 07:04:16 43° 288° (WNW) 07:08:26 437.375
SO-50 05 May 07:02:10 07:06:49 44° 115° (ESE) 07:11:29 436.795
ISS 05 May 07:07:44 07:10:58 65° 137° (SE) 07:14:12 145.825
LilacSat-2 05 May 07:15:08 07:17:56 19° 94° (E) 07:20:42 437.200
AIST 2 05 May 07:25:07 07:27:29 15° 251° (WSW) 07:29:52 435.215
CUTE-I 05 May 07:36:44 07:41:46 42° 99° (E) 07:46:48 437.470
GOMX 1 05 May 07:38:08 07:42:21 23° 92° (E) 07:46:22 467.674
Cosmos 2504 05 May 07:42:51 07:50:03 41° 76° (ENE) 07:57:42 435.465 / 435.565
RS-15 05 May 07:43:23 07:55:47 90° 57° (ENE) 08:08:05 29.354- 29.394
YUBILEINY 05 May 07:47:52 07:56:14 53° 270° (W) 08:04:35 435.215
CUBESAT XI-V 05 May 07:57:26 07:58:25 11° 270° (W) 07:59:24 437.345
PRISM 05 May 08:09:03 08:11:15 14° 65° (ENE) 08:13:28 437.425
NOAA 15 05 May 08:10:29 08:15:44 61° 287° (WNW) 08:20:57 137.62
NOAA 18 05 May 08:11:26 08:16:53 72° 286° (WNW) 08:22:17 137.9125
BRITE-PL 05 May 08:16:45 08:22:28 75° 285° (WNW) 08:27:58 437.365/2234.400
Cubesat XI-IV 05 May 08:21:49 08:27:08 73° 286° (WNW) 08:32:26 437.490
Cosmos 2491 05 May 08:29:32 08:38:04 53° 282° (WNW) 08:46:42 435.465 / 435.565
HO-68 05 May 08:32:42 08:37:07 17° 91° (E) 08:41:31 435.675
PHONESAT 2.4 05 May 08:36:38 08:38:14 13° 145° (SE) 08:39:50 2401.200-2431.200
STRAND 1 05 May 08:36:40 08:41:37 51° 260° (W) 08:46:34 437.568
CANX-2 05 May 08:36:48 08:37:57 11° 91° (E) 08:39:07 2200.000
SO-50 05 May 08:43:31 08:47:29 24° 312° (NW) 08:51:28 436.795
ISS 05 May 08:45:23 08:47:41 18° 335° (NNW) 08:50:00 145.825
LilacSat-2 05 May 08:49:06 08:52:12 24° 289° (WNW) 08:55:15 437.200
DOVE 4 05 May 08:58:02 09:03:05 70° 101° (E) 09:07:49 437.250
CUTE 1.7 + AOD 2 05 May 09:07:08 09:10:30 23° 95° (E) 09:13:50 437.475
M-CUBED/EXP-1 PRIME 05 May 09:12:54 09:16:42 67° 289° (WNW) 09:20:12 437.505
GOMX 1 05 May 09:15:31 09:20:32 40° 289° (WNW) 09:25:19 467.674
CUTE-I 05 May 09:17:27 09:21:31 23° 295° (WNW) 09:25:36 437.470
CINEMA 3 05 May 09:22:14 09:26:25 35° 97° (E) 09:30:25 145.822/145.860
COMPASS 1 05 May 09:28:06 09:31:12 20° 94° (E) 09:34:17 437.405
AUBIESAT-1 05 May 09:29:15 09:32:55 50° 291° (WNW) 09:36:20 437.475
SEEDS 05 May 09:29:15 09:32:56 29° 96° (E) 09:36:37 437.485
Cosmos 2504 05 May 09:36:22 09:43:16 37° 272° (W) 09:50:38 435.465 / 435.565
UWE-3 05 May 09:40:45 09:41:23 10° 90° (E) 09:42:02 435.000/436.395/437.385
PRISM 05 May 09:42:20 09:46:11 42° 261° (W) 09:50:06 437.425
CUBEBUG 2 05 May 09:51:39 09:54:59 22° 94° (E) 09:58:14 437.445
AAUSAT CUBESAT 2 05 May 09:55:42 09:59:28 33° 97° (E) 10:03:15 437.432
RS-15 05 May 09:58:05 10:06:37 23° 261° (W) 10:15:09 29.354- 29.394
BRITE-PL 05 May 09:59:24 09:59:52 10° 301° (WNW) 10:00:21 437.365/2234.400
ZACube-1 05 May 10:03:57 10:05:59 13° 92° (E) 10:07:59 437.345
ANTELSAT 05 May 10:06:19 10:08:41 14° 65° (ENE) 10:11:00 437.575/2403.000
CANX-2 05 May 10:09:59 10:14:07 54° 285° (WNW) 10:18:14 2200.000
PHONESAT 2.4 05 May 10:11:35 10:14:42 66° 160° (SSE) 10:17:50 2401.200-2431.200
HO-68 05 May 10:18:19 10:25:29 78° 288° (WNW) 10:32:38 435.675
DOVE 4 05 May 10:37:48 10:40:02 13° 298° (WNW) 10:42:14 437.250
Oscar 11 05 May 10:38:59 10:43:05 42° 99° (E) 10:47:09 145.826/435.025
CUTE 1.7 + AOD 2 05 May 10:42:44 10:46:17 27° 290° (WNW) 10:49:49 437.475
DELFI C3 05 May 10:47:10 10:50:23 23° 96° (E) 10:53:37 145.870
FUNcube-1 05 May 10:54:36 10:58:40 51° 100° (E) 11:02:41 145.935
UNISAT 6 05 May 10:58:17 11:02:45 50° 74° (ENE) 11:07:11 437.425
CINEMA 3 05 May 11:00:02 11:03:16 19° 294° (WNW) 11:06:23 145.822/145.860
COMPASS 1 05 May 11:03:09 11:06:45 29° 289° (WNW) 11:10:22 437.405
SEEDS 05 May 11:05:20 11:08:27 21° 291° (WNW) 11:11:35 437.485
QB50P2 05 May 11:05:59 11:07:18 11° 64° (ENE) 11:08:38 145.880/145.840
AIST 1 05 May 11:08:02 11:09:32 11° 70° (ENE) 11:11:01
POLYITAN 1 05 May 11:08:03 11:09:30 12° 64° (ENE) 11:10:56 437.675
POPSAT HIP 1 05 May 11:09:48 11:11:19 12° 64° (ENE) 11:12:50 437.405
QB50P1 05 May 11:12:20 11:14:14 13° 65° (ENE) 11:16:08 145.935-145.965
UWE-3 05 May 11:14:06 11:18:13 55° 286° (WNW) 11:22:16 435.000/436.395/437.385
TIGRISAT 05 May 11:14:40 11:19:17 72° 77° (ENE) 11:23:51 435.000
CUBEBUG 2 05 May 11:28:00 11:31:34 27° 290° (WNW) 11:35:05 437.445
AAUSAT CUBESAT 2 05 May 11:31:53 11:34:42 18° 292° (WNW) 11:37:31 437.432
GONETS M04 05 May 11:36:29 11:44:15 34° 72° (ENE) 11:51:55
ZACube-1 05 May 11:38:32 11:42:30 42° 287° (WNW) 11:46:24 437.345
ANTELSAT 05 May 11:40:22 11:44:55 56° 260° (W) 11:49:25 437.575/2403.000
Cosmos 2499 05 May 11:41:54 11:47:11 19° 68° (ENE) 11:52:39 435.465 / 435.565
NANOSAT C BR1 05 May 11:43:36 11:47:13 27° 70° (ENE) 11:50:49 145.865
PHONESAT 2.4 05 May 11:48:33 11:51:37 51° 356° (N) 11:54:43 2401.200-2431.200
ISS 05 May 12:02:15 12:03:01 11° 16° (NNE) 12:03:48 145.825
VELOX 1 05 May 12:08:24 12:09:29 11° 91° (E) 12:10:34 145.980
HO-68 05 May 12:08:38 12:12:04 14° 306° (NW) 12:15:28 435.675
Oscar 11 05 May 12:16:15 12:18:51 16° 294° (WNW) 12:21:27 145.826/435.025
HUMSAT D 05 May 12:17:12 12:21:15 65° 285° (WNW) 12:25:17 437.325/437.525
DELFI C3 05 May 12:21:59 12:25:09 23° 290° (WNW) 12:28:20 145.870
AO-85 05 May 12:23:39 12:28:40 39° 113° (ESE) 12:33:42 145.980
FUNcube-1 05 May 12:32:48 12:34:27 12° 295° (WNW) 12:36:06 145.935
DUCHIFAT 1 05 May 12:33:52 12:38:07 82° 255° (WSW) 12:42:25 145.980
UNISAT 6 05 May 12:37:10 12:39:42 14° 268° (W) 12:42:13 437.425
QB50P2 05 May 12:38:19 12:42:34 61° 259° (W) 12:46:49 145.880/145.840
AISAT 05 May 12:38:35 12:42:21 26° 96° (E) 12:46:05 437.250
POLYITAN 1 05 May 12:40:31 12:44:45 60° 259° (W) 12:49:02 437.675
POPSAT HIP 1 05 May 12:42:21 12:46:35 59° 260° (W) 12:50:50 437.405
AIST 1 05 May 12:43:10 12:47:29 55° 267° (W) 12:51:47
QB50P1 05 May 12:45:21 12:49:32 53° 260° (W) 12:53:44 145.935-145.965
50 SAT 05 May 13:01:21 13:04:57 54° 100° (E) 13:08:32 437.505
BUGSAT 1 05 May 13:03:44 13:07:58 78° 257° (WSW) 13:12:15 437.445
CUBEBUG 1 05 May 13:06:54 13:11:15 52° 100° (E) 13:15:33 437.445
ESTCUBE 1 05 May 13:08:14 13:12:47 80° 102° (ESE) 13:17:20 437.505/2401.250
NANOSAT C BR1 05 May 13:19:29 13:22:53 23° 265° (W) 13:26:18 145.865
PHONESAT 2.4 05 May 13:25:32 13:28:40 70° 13° (NNE) 13:31:49 2401.200-2431.200
DX 1 05 May 13:28:44 13:33:09 83° 105° (ESE) 13:37:31 434.975-435.025
UKube-1 05 May 13:29:51 13:34:12 69° 102° (ESE) 13:38:30 .
JAS-2 05 May 13:30:29 13:36:18 50° 69° (ENE) 13:42:52 435.910
GONETS M04 05 May 13:32:58 13:41:15 49° 271° (W) 13:49:26
Cosmos 2499 05 May 13:33:07 13:41:01 81° 264° (W) 13:49:30 435.465 / 435.565
ISS 05 May 13:37:05 13:40:12 40° 34° (NE) 13:43:17 145.825
VELOX 1 05 May 13:41:54 13:46:20 62° 286° (WNW) 13:50:43 145.980
SPROUT 05 May 13:54:21 13:58:38 68° 100° (E) 14:02:53 437.525
Oscar 19 05 May 14:01:34 14:06:37 55° 72° (ENE) 14:11:41 437.125/150
AO-85 05 May 14:04:25 14:09:15 31° 310° (NW) 14:14:02 145.980
AO-7 05 May 14:13:53 14:15:54 11° 46° (NE) 14:17:56 29.400- 29.500
AISAT 05 May 14:15:02 14:18:44 26° 291° (WNW) 14:22:24 437.250
TISAT 1 05 May 14:17:50 14:21:40 33° 98° (E) 14:25:28 437.305
Gurwin Techsat 1B 05 May 14:19:51 14:24:34 33° 69° (ENE) 14:29:17 435.225
BEESAT 05 May 14:42:19 14:43:25 11° 90° (E) 14:44:30 436.000
CUBEBUG 1 05 May 14:44:49 14:47:03 14° 295° (WNW) 14:49:17 437.445
PHONESAT 2.4 05 May 15:02:35 15:05:23 30° 208° (SSW) 15:08:11 2401.200-2431.200
UKube-1 05 May 15:08:50 15:09:38 10° 297° (WNW) 15:10:25 .
ISS 05 May 15:14:07 15:16:26 18° 230° (SW) 15:18:45 145.825
JAS-2 05 May 15:16:57 15:21:43 24° 269° (W) 15:26:59 435.910
O/OREOS (USA 219) 05 May 15:18:47 15:23:23 88° 113° (ESE) 15:28:00 437.305
ITAMSAT 1 05 May 15:26:33 15:31:38 59° 73° (ENE) 15:36:43 435.822/435.867
Cosmos 2499 05 May 15:29:44 15:32:58 13° 281° (WNW) 15:36:16 435.465 / 435.565
SPROUT 05 May 15:33:37 15:33:59 10° 297° (WNW) 15:34:22 437.525
SO-50 05 May 15:35:43 15:39:40 26° 49° (NE) 15:43:30 436.795
ITUPSAT 1 05 May 15:36:22 15:40:55 42° 99° (E) 15:45:26 437.325
DANDE 05 May 15:41:28 15:43:01 13° 84° (E) 15:44:42 436.750
Oscar 19 05 May 15:43:07 15:46:14 16° 268° (W) 15:49:23 437.125/150
SWISSCUBE 05 May 15:44:03 15:48:46 59° 101° (E) 15:53:28 437.505
TISAT 1 05 May 15:54:08 15:57:03 19° 293° (WNW) 15:59:59 437.305
PCSat 05 May 15:55:08 16:00:31 73° 114° (ESE) 16:05:57 145.827
AO-7 05 May 15:58:52 16:06:50 55° 66° (ENE) 16:14:52 29.400- 29.500
Gurwin Techsat 1B 05 May 15:59:59 16:04:29 28° 264° (W) 16:09:01 435.225
CUSAT 1 05 May 16:11:16 16:14:47 61° 282° (WNW) 16:19:27 437.405
BEESAT 05 May 16:16:53 16:21:38 69° 285° (WNW) 16:26:22 436.000
HORYU 2 05 May 16:22:20 16:24:15 13° 63° (ENE) 16:26:10 437.375
Cosmos 2491 05 May 16:48:22 16:52:06 13° 60° (ENE) 16:55:48 435.465 / 435.565
ITAMSAT 1 05 May 17:08:37 17:11:27 15° 268° (W) 17:14:19 435.822/435.867
ITUPSAT 1 05 May 17:15:05 17:18:25 19° 294° (WNW) 17:21:45 437.325
SO-50 05 May 17:15:57 17:20:12 35° 246° (WSW) 17:24:19 436.795
DANDE 05 May 17:23:14 17:25:31 19° 291° (WNW) 17:28:14 436.750
SWISSCUBE 05 May 17:23:33 17:26:03 14° 297° (WNW) 17:28:32 437.505
KKS-1 05 May 17:32:28 17:36:57 84° 284° (WNW) 17:41:24 437.445
BEESAT 3 05 May 17:32:33 17:34:26 13° 109° (ESE) 17:36:19 437.485
STARS 05 May 17:40:49 17:45:11 60° 101° (E) 17:49:29 437.465
PCSat 05 May 17:40:59 17:44:29 17° 313° (NW) 17:48:01 145.827
JUGNU 05 May 17:41:10 17:41:37 10° 170° (S) 17:42:04 437.505
BEESAT 2 05 May 17:47:00 17:47:47 10° 108° (ESE) 17:48:35 435.950
NOAA 15 05 May 17:50:41 17:54:37 22° 65° (ENE) 17:58:32 137.62
BRITE-PL 05 May 17:50:41 17:52:35 12° 60° (ENE) 17:54:32 437.365/2234.400
AO-7 05 May 17:52:50 17:59:53 31° 263° (W) 18:06:59 29.400- 29.500
HORYU 2 05 May 17:55:53 18:00:17 59° 259° (W) 18:04:42 437.375
NOAA 18 05 May 17:57:00 18:01:15 23° 65° (ENE) 18:05:31 137.9125
MOZHAYETS 4 05 May 17:57:50 18:02:23 69° 285° (WNW) 18:06:56
Cubesat XI-IV 05 May 18:04:09 18:07:48 19° 64° (ENE) 18:11:28 437.490
CUBESAT XI-V 05 May 18:15:14 18:18:35 19° 93° (E) 18:21:54 437.345
M-CUBED/EXP-1 PRIME 05 May 18:25:17 18:27:08 12° 59° (ENE) 18:28:59 437.505
AUBIESAT-1 05 May 18:40:31 18:42:57 14° 60° (ENE) 18:45:23 437.475
Cosmos 2491 05 May 18:41:47 18:50:37 73° 82° (E) 18:59:20 435.465 / 435.565
GOMX 1 05 May 18:44:19 18:48:06 21° 65° (ENE) 18:52:02 467.674
YUBILEINY 05 May 18:50:25 18:58:12 38° 86° (E) 19:05:58 435.215
CUTE-I 05 May 18:56:45 19:01:58 59° 73° (ENE) 19:07:12 437.470
HO-68 05 May 19:02:53 19:05:06 12° 52° (NE) 19:07:20 435.675
BEESAT 3 05 May 19:07:56 19:11:43 45° 304° (NW) 19:15:32 437.485
STARS 05 May 19:19:18 19:21:00 12° 297° (WNW) 19:22:43 437.465
BEESAT 2 05 May 19:21:12 19:25:07 57° 303° (WNW) 19:29:03 435.950
BRITE-PL 05 May 19:25:19 19:30:10 80° 258° (WSW) 19:35:30 437.365/2234.400
JUGNU 05 May 19:27:14 19:29:43 13° 180° (S) 19:32:13 437.505
LilacSat-2 05 May 19:28:21 19:32:12 66° 259° (W) 19:36:04 437.200
NOAA 15 05 May 19:29:01 19:34:02 45° 261° (W) 19:39:06 137.62
NOAA 18 05 May 19:36:21 19:41:36 44° 260° (W) 19:46:51 137.9125
Cubesat XI-IV 05 May 19:42:16 19:47:27 52° 260° (W) 19:52:38 437.490
AIST 2 05 May 19:43:06 19:45:15 14° 109° (ESE) 19:47:24 435.215
CUBESAT XI-V 05 May 19:51:42 19:56:03 39° 289° (WNW) 20:00:26 437.345
M-CUBED/EXP-1 PRIME 05 May 19:56:21 20:01:05 77° 254° (WSW) 20:05:44 437.505
CUTE 1.7 + AOD 2 05 May 19:59:26 20:01:33 14° 66° (ENE) 20:03:41 437.475
RS-15 05 May 20:00:06 20:04:42 13° 95° (E) 20:09:20 29.354- 29.394
DOVE 4 05 May 20:00:38 20:05:39 57° 74° (ENE) 20:10:52 437.250
AUBIESAT-1 05 May 20:12:21 20:16:57 62° 254° (WSW) 20:21:29 437.475
COMPASS 1 05 May 20:19:07 20:20:27 11° 65° (ENE) 20:21:47 437.405
SEEDS 05 May 20:20:12 20:22:54 17° 67° (ENE) 20:25:36 437.485
Cosmos 2504 05 May 20:20:25 20:26:41 33° 87° (E) 20:32:52 435.465 / 435.565
GOMX 1 05 May 20:20:55 20:25:45 46° 262° (W) 20:30:54 467.674
CINEMA 3 05 May 20:21:27 20:25:48 30° 70° (ENE) 20:30:08 145.822/145.860
SRMSAT 05 May 20:33:04 20:35:21 12° 174° (S) 20:37:39 437.500
CUTE-I 05 May 20:39:16 20:42:22 16° 268° (W) 20:45:28 437.470
Cosmos 2491 05 May 20:40:21 20:46:28 22° 280° (W) 20:52:33 435.465 / 435.565
HO-68 05 May 20:44:25 20:51:29 66° 71° (ENE) 20:58:34 435.675
AAUSAT CUBESAT 2 05 May 20:45:03 20:47:53 18° 68° (ENE) 20:50:44 437.432
YUBILEINY 05 May 20:46:37 20:54:48 44° 285° (WNW) 21:03:00 435.215
CUBEBUG 2 05 May 20:48:11 20:51:21 18° 67° (ENE) 20:54:31 437.445
STRAND 1 05 May 20:48:40 20:53:45 62° 102° (ESE) 20:58:49 437.568
AO-85 05 May 20:58:09 21:01:46 21° 45° (NE) 21:05:08 145.980
ZACube-1 05 May 20:59:56 21:00:32 10° 64° (ENE) 21:01:08 437.345
CANX-2 05 May 21:00:33 21:04:46 82° 75° (ENE) 21:08:58 2200.000
AIST 2 05 May 21:19:20 21:23:19 47° 304° (NW) 21:27:20 435.215
PRISM 05 May 21:25:41 21:29:17 28° 97° (E) 21:32:53 437.425
Oscar 11 05 May 21:32:16 21:35:52 26° 70° (ENE) 21:39:27 145.826/435.025
CUTE 1.7 + AOD 2 05 May 21:32:56 21:36:59 46° 261° (W) 21:41:03 437.475
DELFI C3 05 May 21:33:32 21:34:49 11° 65° (ENE) 21:36:06 145.870
DOVE 4 05 May 21:40:36 21:43:42 16° 270° (W) 21:46:52 437.250
FUNcube-1 05 May 21:48:09 21:52:11 33° 71° (ENE) 21:56:09 145.935
COMPASS 1 05 May 21:51:28 21:55:31 55° 260° (W) 21:59:35 437.405
SEEDS 05 May 21:54:29 21:58:19 35° 262° (W) 22:02:10 437.485
CINEMA 3 05 May 21:58:31 22:02:50 29° 265° (W) 22:07:08 145.822/145.860
RS-15 05 May 22:03:36 22:14:42 72° 114° (ESE) 22:26:27 29.354- 29.394
UWE-3 05 May 22:08:25 22:13:03 89° 252° (WSW) 22:17:37 435.000/436.395/437.385
Cosmos 2504 05 May 22:13:11 22:19:51 39° 284° (WNW) 22:26:29 435.465 / 435.565
AAUSAT CUBESAT 2 05 May 22:19:28 22:23:09 32° 263° (W) 22:26:50 437.432
SRMSAT 05 May 22:21:13 22:23:39 13° 185° (S) 22:26:05 437.500
CUBEBUG 2 05 May 22:23:08 22:27:38 43° 261° (W) 22:32:05 437.445
STRAND 1 05 May 22:29:31 22:32:23 15° 297° (WNW) 22:35:15 437.568
ZACube-1 05 May 22:31:42 22:36:13 74° 258° (WSW) 22:40:40 437.345
HO-68 05 May 22:34:32 22:39:40 21° 267° (W) 22:44:50 435.675
AO-85 05 May 22:38:04 22:42:30 44° 246° (WSW) 22:46:32 145.980
UNISAT 6 05 May 22:54:37 22:55:32 11° 91° (E) 22:56:27 437.425
PRISM 05 May 23:01:13 23:04:26 22° 292° (WNW) 23:07:39 437.425
DELFI C3 05 May 23:05:24 23:09:14 49° 261° (W) 23:13:05 145.870
HUMSAT D 05 May 23:06:17 23:10:27 66° 76° (ENE) 23:14:36 437.325/437.525
Oscar 11 05 May 23:08:26 23:11:55 24° 265° (W) 23:15:25 145.826/435.025
TIGRISAT 05 May 23:09:28 23:12:03 16° 93° (E) 23:14:37 435.000
FUNcube-1 05 May 23:25:07 23:28:27 20° 266° (W) 23:31:46 145.935
ANTELSAT 05 May 23:34:11 23:38:03 32° 97° (E) 23:41:51 437.575/2403.000
AISAT 05 May 23:34:45 23:37:58 20° 67° (ENE) 23:41:13 437.250
50 SAT 05 May 23:39:03 23:41:42 19° 69° (ENE) 23:44:20 437.505
O/OREOS (USA 219) 05 May 23:53:23 23:55:18 12° 54° (NE) 23:57:13 437.305
CUBEBUG 1 06 May 00:01:07 00:05:05 34° 71° (ENE) 00:09:06 437.445
ESTCUBE 1 06 May 00:05:50 00:10:12 57° 74° (ENE) 00:14:36 437.505/2401.250
RS-15 06 May 00:17:50 00:28:08 37° 319° (NW) 00:38:59 29.354- 29.394
DUCHIFAT 1 06 May 00:20:54 00:23:43 17° 94° (E) 00:26:33 145.980
Cosmos 2499 06 May 00:21:02 00:23:16 12° 78° (ENE) 00:25:31 435.465 / 435.565
DX 1 06 May 00:22:15 00:26:30 55° 74° (ENE) 00:30:48 434.975-435.025
UKube-1 06 May 00:22:31 00:26:38 45° 72° (ENE) 00:30:46 .
QB50P2 06 May 00:25:37 00:29:02 23° 95° (E) 00:32:26 145.880/145.840
POLYITAN 1 06 May 00:27:49 00:31:14 24° 95° (E) 00:34:38 437.675
UNISAT 6 06 May 00:28:24 00:32:37 56° 286° (WNW) 00:36:46 437.425
POPSAT HIP 1 06 May 00:29:27 00:32:54 24° 95° (E) 00:36:20 437.405
QB50P1 06 May 00:32:14 00:35:49 26° 96° (E) 00:39:23 145.935-145.965
GONETS M04 06 May 00:35:06 00:43:11 42° 87° (E) 00:51:15
VELOX 1 06 May 00:37:03 00:41:28 88° 251° (WSW) 00:45:58 145.980
TIGRISAT 06 May 00:44:55 00:48:54 38° 288° (WNW) 00:52:50 435.000
PCSat 06 May 00:44:56 00:50:02 40° 56° (NE) 00:55:06 145.827
SPROUT 06 May 00:46:05 00:50:07 40° 72° (ENE) 00:54:10 437.525
BUGSAT 1 06 May 00:48:35 00:51:19 17° 93° (E) 00:54:00 437.445
CUSAT 1 06 May 01:04:32 01:08:51 16° 65° (ENE) 01:13:19 437.405
NANOSAT C BR1 06 May 01:04:38 01:08:50 62° 101° (E) 01:12:59 145.865
TISAT 1 06 May 01:08:15 01:11:27 21° 68° (ENE) 01:14:39 437.305
AISAT 06 May 01:10:08 01:14:12 35° 262° (W) 01:18:18 437.250
AIST 1 06 May 01:10:10 01:14:29 87° 277° (W) 01:18:52
ANTELSAT 06 May 01:11:27 01:14:32 20° 293° (WNW) 01:17:36 437.575/2403.000
50 SAT 06 May 01:12:24 01:15:20 23° 264° (W) 01:18:17 437.505
O/OREOS (USA 219) 06 May 01:30:42 01:35:10 65° 252° (WSW) 01:39:35 437.305
CUBEBUG 1 06 May 01:38:20 01:41:26 19° 266° (W) 01:44:35 437.445
ESTCUBE 1 06 May 01:45:46 01:47:21 12° 269° (W) 01:48:56 437.505/2401.250
BEESAT 06 May 01:47:24 01:48:55 11° 62° (ENE) 01:50:26 436.000
DUCHIFAT 1 06 May 01:55:43 01:59:30 34° 289° (WNW) 02:03:17 145.980
UKube-1 06 May 02:00:35 02:02:53 14° 267° (W) 02:05:13 .
QB50P2 06 May 02:01:15 02:04:46 26° 290° (WNW) 02:08:15 145.880/145.840
DX 1 06 May 02:01:30 02:03:00 12° 268° (W) 02:04:32 434.975-435.025
POLYITAN 1 06 May 02:03:29 02:06:58 25° 291° (WNW) 02:10:24 437.675
POPSAT HIP 1 06 May 02:05:09 02:08:37 25° 291° (WNW) 02:12:02 437.405
Cosmos 2499 06 May 02:08:05 02:15:09 89° 103° (ESE) 02:22:19 435.465 / 435.565
QB50P1 06 May 02:08:08 02:11:28 23° 291° (WNW) 02:14:46 145.935-145.965
Oscar 19 06 May 02:15:38 02:19:39 22° 94° (E) 02:23:38 437.125/150
DANDE 06 May 02:16:35 02:22:32 28° 73° (ENE) 02:29:14 436.750
BUGSAT 1 06 May 02:23:00 02:26:47 34° 289° (WNW) 02:30:31 437.445
SPROUT 06 May 02:23:37 02:26:13 16° 267° (W) 02:28:50 437.525
JAS-2 06 May 02:25:38 02:33:24 59° 100° (E) 02:40:55 435.910
PCSat 06 May 02:28:45 02:33:11 26° 253° (WSW) 02:37:35 145.827
GONETS M04 06 May 02:31:46 02:39:55 40° 286° (WNW) 02:48:07
RS-15 06 May 02:38:24 02:45:46 18° 353° (N) 02:53:18 29.354- 29.394
Gurwin Techsat 1B 06 May 02:38:59 02:41:55 15° 92° (E) 02:44:49 435.225
ITUPSAT 1 06 May 02:41:23 02:45:49 40° 71° (ENE) 02:50:16 437.325
NANOSAT C BR1 06 May 02:43:05 02:44:00 11° 297° (WNW) 02:44:55 145.865
TISAT 1 06 May 02:43:10 02:46:54 30° 263° (W) 02:50:40 437.305
CUSAT 1 06 May 02:44:14 02:51:53 79° 81° (E) 02:59:59 437.405
SWISSCUBE 06 May 02:48:40 02:53:17 55° 73° (ENE) 02:57:56 437.505
BEESAT 06 May 03:21:18 03:26:03 74° 258° (WSW) 03:30:49 436.000
BEESAT 3 06 May 03:26:41 03:30:34 54° 57° (ENE) 03:34:25 437.485
BEESAT 2 06 May 03:40:54 03:44:45 44° 56° (NE) 03:48:33 435.950
ITAMSAT 1 06 May 03:41:45 03:45:55 24° 95° (E) 03:50:03 435.822/435.867
Oscar 19 06 May 03:54:14 03:59:04 40° 290° (WNW) 04:03:52 437.125/150
